Location: *
(45.9500°N, 9.0833°E)
Time: 09:15:30
(UTC+00:00)

USA 234 - Visible Passes

Search period start: 16 June 2021 00:00
Search period end: 26 June 2021 00:00
Orbit: 1102 x 1105 km, 123.0° (Epoch: 18 April)

Date Brightness Start Highest point End Pass type
(mag) Time Alt. Az. Time Alt. Az. Time Alt. Az.
20 Jun 5.6 20:04:14 10° SW 20:05:36 11° WSW 20:06:58 10° WSW visible
22 Jun 5.6 20:21:56 10° SW 20:23:10 11° WSW 20:24:24 10° WSW visible
24 Jun 5.6 20:39:38 10° SW 20:40:44 10° WSW 20:41:49 10° WSW visible
25 Jun 4.9 19:52:12 10° S 19:57:20 24° SW 20:02:30 10° WNW visible
